Stündliche Wetter Jugowice

Heute, 5 März, Freitag

Zeit Temperatur Niederschläge Wind Luftdruck Luftfeuchtigkeit
00:00 0°C° 0.3 mm 3 m/S 720 mmHg 91%
01:00 -1°C° 0 mm 2 m/S 720 mmHg 94%
02:00 -1°C° 0.2 mm 2 m/S 720 mmHg 93%
03:00 -1°C° 0.2 mm 2 m/S 720 mmHg 92%
04:00 -2°C° 0.2 mm 3 m/S 720 mmHg 90%
05:00 -2°C° 0.2 mm 3 m/S 721 mmHg 92%
06:00 -2°C° 0.2 mm 3 m/S 721 mmHg 93%
07:00 -2°C° 0 mm 3 m/S 722 mmHg 95%
08:00 -3°C° 0.4 mm 4 m/S 723 mmHg 91%
09:00 -3°C° 0.4 mm 4 m/S 723 mmHg 88%
10:00 -3°C° 0.4 mm 4 m/S 724 mmHg 84%
11:00 -3°C° 0.1 mm 4 m/S 724 mmHg 77%
12:00 -2°C° 0.1 mm 5 m/S 725 mmHg 70%
13:00 -2°C° 0 mm 4 m/S 726 mmHg 63%
14:00 -2°C° 0 mm 4 m/S 726 mmHg 61%
15:00 -2°C° 0 mm 4 m/S 726 mmHg 59%
16:00 -2°C° 0 mm 4 m/S 726 mmHg 56%
17:00 -1°C° 0 mm 3 m/S 727 mmHg 62%
18:00 -2°C° 0 mm 2 m/S 728 mmHg 68%
19:00 -1°C° 0 mm 1 m/S 728 mmHg 73%
20:00 -3°C° 0 mm 2 m/S 729 mmHg 74%
21:00 -4°C° 0 mm 2 m/S 729 mmHg 74%
22:00 -4°C° 0 mm 2 m/S 730 mmHg 75%
23:00 -4°C° 0 mm 2 m/S 730 mmHg 75%

Morgen, 6 März, Samstag

Zeit Temperatur Niederschläge Wind Luftdruck Luftfeuchtigkeit
00:00 -4°C° 0 mm 2 m/S 730 mmHg 75%
01:00 -4°C° 0 mm 2 m/S 731 mmHg 75%
02:00 -2°C° 0 mm 1 m/S 731 mmHg 73%
03:00 -2°C° 0 mm 1 m/S 731 mmHg 72%
04:00 -2°C° 0 mm 1 m/S 731 mmHg 71%
05:00 -2°C° 0 mm 1 m/S 731 mmHg 70%
06:00 -4°C° 0 mm 2 m/S 731 mmHg 70%
07:00 -4°C° 0 mm 2 m/S 732 mmHg 69%
08:00 -3°C° 0 mm 2 m/S 732 mmHg 63%
09:00 -1°C° 0 mm 3 m/S 732 mmHg 57%
10:00 0°C° 0 mm 3 m/S 732 mmHg 51%
11:00 +1°C° 0 mm 3 m/S 732 mmHg 48%
12:00 +1°C° 0 mm 3 m/S 732 mmHg 46%
13:00 +2°C° 0 mm 3 m/S 732 mmHg 44%
14:00 +1°C° 0 mm 4 m/S 732 mmHg 45%
15:00 +1°C° 0 mm 4 m/S 731 mmHg 46%
16:00 +1°C° 0 mm 4 m/S 731 mmHg 47%
17:00 0°C° 0 mm 3 m/S 730 mmHg 54%
18:00 -1°C° 0 mm 3 m/S 730 mmHg 61%
19:00 -2°C° 0 mm 2 m/S 730 mmHg 67%
20:00 -3°C° 0 mm 2 m/S 730 mmHg 68%
21:00 -3°C° 0 mm 2 m/S 730 mmHg 69%
22:00 -3°C° 0 mm 2 m/S 729 mmHg 69%
23:00 -3°C° 0 mm 2 m/S 729 mmHg 71%

übermorgen, 7 März, Sonntag

Zeit Temperatur Niederschläge Wind Luftdruck Luftfeuchtigkeit
00:00 -4°C° 0 mm 3 m/S 729 mmHg 73%
01:00 -2°C° 0 mm 3 m/S 729 mmHg 75%
02:00 -4°C° 0 mm 3 m/S 729 mmHg 76%
03:00 -4°C° 0 mm 3 m/S 728 mmHg 77%
04:00 -4°C° 0 mm 3 m/S 728 mmHg 79%
05:00 -4°C° 0 mm 3 m/S 728 mmHg 80%
06:00 -4°C° 0 mm 3 m/S 727 mmHg 81%
07:00 -4°C° 0 mm 3 m/S 727 mmHg 83%
08:00 -2°C° 0 mm 3 m/S 727 mmHg 77%
09:00 -1°C° 0 mm 4 m/S 727 mmHg 71%
10:00 0°C° 0 mm 4 m/S 727 mmHg 65%
11:00 +1°C° 0 mm 5 m/S 726 mmHg 63%
12:00 +1°C° 0 mm 5 m/S 726 mmHg 61%
13:00 +2°C° 0 mm 5 m/S 726 mmHg 59%
14:00 +1°C° 0 mm 5 m/S 725 mmHg 60%
15:00 +1°C° 0 mm 4 m/S 725 mmHg 62%
16:00 +1°C° 0 mm 4 m/S 724 mmHg 63%
17:00 -1°C° 0 mm 4 m/S 724 mmHg 69%
18:00 -1°C° 0 mm 3 m/S 724 mmHg 75%
19:00 -2°C° 0 mm 2 m/S 724 mmHg 81%
20:00 -2°C° 0 mm 2 m/S 723 mmHg 82%
21:00 -3°C° 0 mm 2 m/S 723 mmHg 83%
22:00 -3°C° 0 mm 2 m/S 723 mmHg 83%
23:00 -3°C° 0 mm 2 m/S 723 mmHg 84%

8 März, Montag

Zeit Temperatur Niederschläge Wind Luftdruck Luftfeuchtigkeit
00:00 -4°C° 0 mm 2 m/S 723 mmHg 85%
01:00 -4°C° 0 mm 2 m/S 723 mmHg 86%
02:00 -4°C° 0 mm 2 m/S 723 mmHg 86%
03:00 -4°C° 0 mm 2 m/S 723 mmHg 87%
04:00 -3°C° 0 mm 2 m/S 722 mmHg 87%
05:00 -3°C° 0.1 mm 2 m/S 723 mmHg 88%
06:00 -3°C° 0.1 mm 2 m/S 723 mmHg 90%
07:00 -3°C° 0.1 mm 2 m/S 723 mmHg 91%
08:00 -2°C° 0.2 mm 2 m/S 723 mmHg 89%
09:00 -1°C° 0.2 mm 2 m/S 724 mmHg 88%
10:00 -1°C° 0.2 mm 2 m/S 724 mmHg 86%
11:00 +1°C° 0.4 mm 2 m/S 724 mmHg 82%
12:00 +1°C° 0.4 mm 2 m/S 724 mmHg 78%
13:00 +1°C° 0.4 mm 2 m/S 724 mmHg 74%
14:00 +1°C° 0.1 mm 2 m/S 724 mmHg 71%
15:00 +1°C° 0.1 mm 2 m/S 724 mmHg 67%
16:00 +1°C° 0.1 mm 2 m/S 724 mmHg 64%
17:00 +1°C° 0 mm 1 m/S 724 mmHg 68%
18:00 0°C° 0 mm 1 m/S 724 mmHg 73%
19:00 -1°C° 0 mm 1 m/S 725 mmHg 77%
20:00 -3°C° 0 mm 0 m/S 725 mmHg 78%
21:00 -3°C° 0 mm 0 m/S 725 mmHg 78%
22:00 -3°C° 0 mm 0 m/S 725 mmHg 78%
23:00 -3°C° 0 mm 0 m/S 725 mmHg 77%

9 März, Dienstag

Zeit Temperatur Niederschläge Wind Luftdruck Luftfeuchtigkeit
00:00 -3°C° 0 mm 0 m/S 725 mmHg 77%
01:00 -3°C° 0 mm 0 m/S 725 mmHg 76%
02:00 -2°C° 0 mm 1 m/S 725 mmHg 76%
03:00 -2°C° 0 mm 1 m/S 725 mmHg 75%
04:00 -2°C° 0 mm 1 m/S 725 mmHg 75%
05:00 -2°C° 0 mm 1 m/S 725 mmHg 76%
06:00 -2°C° 0 mm 1 m/S 725 mmHg 77%
07:00 -2°C° 0 mm 1 m/S 725 mmHg 78%
08:00 -1°C° 0 mm 1 m/S 725 mmHg 72%
09:00 +1°C° 0 mm 1 m/S 726 mmHg 66%
10:00 +1°C° 0 mm 2 m/S 726 mmHg 61%
11:00 +2°C° 0 mm 2 m/S 726 mmHg 59%
12:00 +2°C° 0 mm 2 m/S 726 mmHg 58%
13:00 +3°C° 0 mm 2 m/S 726 mmHg 56%
14:00 +3°C° 0 mm 2 m/S 726 mmHg 59%
15:00 +3°C° 0 mm 2 m/S 725 mmHg 62%
16:00 +2°C° 0 mm 2 m/S 725 mmHg 65%
17:00 +1°C° 0 mm 2 m/S 725 mmHg 72%
18:00 -1°C° 0 mm 2 m/S 725 mmHg 80%
19:00 0°C° 0 mm 1 m/S 725 mmHg 87%
20:00 0°C° 0 mm 1 m/S 725 mmHg 89%
21:00 0°C° 0 mm 1 m/S 725 mmHg 90%
22:00 0°C° 0 mm 1 m/S 726 mmHg 91%
23:00 -2°C° 0 mm 2 m/S 725 mmHg 91%

10 März, Mittwoch

Zeit Temperatur Niederschläge Wind Luftdruck Luftfeuchtigkeit
00:00 -3°C° 0 mm 2 m/S 725 mmHg 91%
01:00 -3°C° 0 mm 2 m/S 725 mmHg 91%
02:00 -3°C° 0 mm 2 m/S 725 mmHg 91%
03:00 -2°C° 0 mm 2 m/S 725 mmHg 91%
04:00 -2°C° 0 mm 2 m/S 724 mmHg 91%
05:00 -2°C° 0 mm 3 m/S 724 mmHg 90%
06:00 -2°C° 0 mm 3 m/S 724 mmHg 90%
07:00 -2°C° 0 mm 3 m/S 724 mmHg 89%
08:00 -2°C° 0 mm 4 m/S 724 mmHg 84%
09:00 -1°C° 0 mm 5 m/S 724 mmHg 78%
10:00 0°C° 0 mm 5 m/S 724 mmHg 73%
11:00 +1°C° 0 mm 5 m/S 723 mmHg 70%
12:00 +2°C° 0 mm 6 m/S 722 mmHg 67%
13:00 +3°C° 0 mm 6 m/S 722 mmHg 63%
14:00 +3°C° 0 mm 6 m/S 721 mmHg 64%
15:00 +3°C° 0 mm 6 m/S 721 mmHg 64%
16:00 +3°C° 0 mm 6 m/S 720 mmHg 65%
17:00 +3°C° 0 mm 7 m/S 719 mmHg 68%
18:00 +2°C° 0 mm 7 m/S 719 mmHg 71%
19:00 +2°C° 0 mm 7 m/S 718 mmHg 75%
20:00 +2°C° 0.2 mm 7 m/S 718 mmHg 79%
21:00 +2°C° 0.2 mm 7 m/S 717 mmHg 83%
22:00 0°C° 0.2 mm 8 m/S 717 mmHg 87%
23:00 +1°C° 0.2 mm 8 m/S 717 mmHg 86%
Mehr zeigen

Wir brauchen deine Erlaubnis

Meteoprog und unser Service Anbieter werden persönliche Daten aufbewahren, so wie Cookies, Geräte Bezeichnung oder ähnliche Technologien von deinem Gerät und Prozess, so wie Persönliche Daten Inhalte und Werbungen, genauso wie social Media und den Verkehr zu analysieren.

  • Aufbewahrung und/oder Zugang zu deiner Geräte Informationen.

    Cookies, Geräte Bezeichnung oder andere Informationen, können aufbewahrt oder Zugang zu deinem Gerät erhalten, für den Grund, der oben angegeben wird.

  • Personalisierte Werbung und Inhalte, Messungen, Einblick in das Publikum und Produkt Entwicklung.

    Werbungen und Inhalte können personalisiert werden, basierend auf ein Profil. Mehr Daten können besser personalisierte Werbungen und Inhalte hinzufügen. Werbung und Inhalte können gezeigt und gemessen werden. Einblicke über das Publikum, welche die Werbung gesehen haben und den Inhalt, können abgeleitet werden. So wie Daten können genutzt werden, um es zu verbessern oder die Benutzer Erfahrung zu verbessern das System und die Software.

Wenn du “Ich stimme zu” klickst, erlaubst du uns, die Cookies zu benutzen die Geräte Bezeichnung, den Web oder ähnliche Technologien zu benutzen. Deine Settings, können in deinem Gerät bei deinem Browser geändert werden.

Für den bestimmten Zweck, berechtigten Interessen beruhen darauf, mehr als auf den Inhalt. Du kannst mehr darüber in unseren Privaten und Cookie Politik lesen.